"2009-08-24 00:00:00",1178209,4.691,0.726,2.175,0.503,22.98,111.4379,28.59,29.69,20.6,0,111.5,13.07,29.44,322.7
"2009-08-24 00:00:30",1178210,4.949,2.124,2.008,0.328,23.01,111.4132,28.53,29.67,20.67,0,111.4,13.07,29.38,324.1
"2009-08-24 00:01:00",1178211,4.782,3.518,2.544,0.327,23.01,111.4062,28.51,29.63,20.6,0,111.5,13.07,29.36,325.5
"2009-08-24 00:01:30",1178212,5.483,1.007,2.669,0.344,23.03,111.386,28.46,29.6,20.55,0,111.4,13.07,29.31,323.0
"2009-08-24 00:02:00",1178213,5.864,357.5,1.814,0.461,23.04,111.3728,28.42,29.56,20.42,0,111.4,13.07,29.27,319.5
"2009-08-24 00:02:30",1178214,5.781,357.5,1.565,0.357,23.07,111.3484,28.36,29.54,20.35,0,111.4,13.07,29.21,319.5
"2009-08-24 00:03:00",1178215,5.626,358.4,1.702,0.395,23.08,111.3313,28.32,29.49,20.31,0,111.4,13.07,29.17,320.4
"2009-08-24 00:03:30",1178216,5.321,358.9,1.982,0.392,23.12,111.3072,28.26,29.46,20.6,0,111.4,13.07,29.11,320.9
"2009-08-24 00:04:00",1178217,5.031,359.6,1.521,0.323,23.1,111.2946,28.22,29.39,20.6,0,111.4,13.07,29.07,321.6
"2009-08-24 00:04:30",1178218,5.77,357.5,1.802,0.42,23.13,111.274,28.17,29.37,20.49,0,111.4,13.07,29.02,319.5
"2009-08-24 00:05:00",1178219,5.884,357.4,1.547,0.432,23.2,111.2513,28.11,29.33,20.51,0,111.4,13.06,28.96,319.4
"2009-08-24 00:05:30",1178220,5.64,358.9,1.513,0.45,23.32,111.2376,28.08,29.29,20.36,0,111.4,13.07,28.93,320.9
"2009-08-24 00:06:00",1178221,5.783,358,2.679,0.867,23.35,111.2095,28,29.23,20.33,0,111.4,13.07,28.85,320.0
"2009-08-24 00:06:30",1178222,6.239,357,2.524,0.777,23.42,111.1931,27.96,29.16,20.56,0,111.4,13.06,28.81,319.0
"2009-08-24 00:07:00",1178223,6.561,355.8,2.861,1.05,23.42,111.173,27.91,29.13,20.81,0,111.4,13.07,28.76,317.8
"2009-08-24 00:07:30",1178224,6.287,355.6,2.173,0.632,23.36,111.1455,27.84,29.08,21.05,0,111.4,13.07,28.69,317.6
"2009-08-24 00:08:00",1178225,5.677,357.1,2.422,0.952,23.2,111.1314,27.8,29.02,21.38,0,111.4,13.07,28.65,319.1
"2009-08-24 00:08:30",1178226,6.353,356.7,3.765,1.342,23.19,111.1106,27.75,28.98,21.32,0,111.4,13.07,28.60,318.7
"2009-08-24 00:09:00",1178227,6.268,356.2,2.554,0.883,23.14,111.0916,27.7,28.92,21.29,0,111.4,13.07,28.55,318.2
"2009-08-24 00:09:30",1178228,7.154,354.5,2.328,0.963,23.14,111.0819,27.68,28.87,20.78,0,111.4,13.07,28.52,316.5
"2009-08-24 00:10:00",1178229,7.544,353.7,1.54,0.637,23.13,111.0638,27.63,28.82,20.64,0,111.4,13.07,28.48,315.7
"2009-08-24 00:10:30",1178230,8.33,353,1.265,0.399,23.25,111.0482,27.59,28.77,20.29,0,111.4,13.07,28.44,315.0
"2009-08-24 00:11:00",1178231,9.01,351.7,1.203,0.249,23.29,111.0304,27.54,28.73,20.06,0,111.4,13.07,28.39,313.7
"2009-08-24 00:11:30",1178232,8.42,352.7,1.888,0.73,23.33,111.0094,27.49,28.67,20.23,0,111.4,13.07,28.34,314.7
"2009-08-24 00:12:00",1178233,6.839,355.5,1.875,0.619,23.29,110.9968,27.46,28.62,20.75,0,111.4,13.08,28.30,317.5
"2009-08-24 00:12:30",1178234,7.387,354.1,1.617,0.771,23.29,110.9861,27.43,28.57,20.68,0,111.4,13.08,28.28,316.1
"2009-08-24 00:13:00",1178235,8.06,353.7,1.976,0.769,23.31,110.9657,27.38,28.53,20.44,0,111.4,13.08,28.22,315.7
"2009-08-24 00:13:30",1178236,6.587,355.4,1.79,0.414,23.24,110.96,27.36,28.5,20.34,0,111.4,13.08,28.21,317.4
"2009-08-24 00:14:00",1178237,8.61,351.7,1.381,0.781,23.32,110.9445,27.32,28.46,20.19,0,111.4,13.08,28.17,313.7
"2009-08-24 00:14:30",1178238,9.12,351,0.87,0.342,23.42,110.9367,27.3,28.43,20.07,0,111.4,13.08,28.15,313.0
"2009-08-24 00:15:00",1178239,8.99,351.6,1.527,0.615,23.38,110.9347,27.3,28.4,20.19,0,111.4,13.08,28.14,313.6
"2009-08-24 00:15:30",1178240,8.39,351.8,1.156,0.583,23.5,110.9303,27.29,28.37,20.37,0,111.4,13.07,28.13,313.8
"2009-08-24 00:16:00",1178241,8.37,351.7,1.441,0.463,23.56,110.9116,27.24,28.35,20.39,0,111.4,13.08,28.08,313.7
"2009-08-24 00:16:30",1178242,8.75,351.9,1.177,0.394,23.54,110.9057,27.22,28.31,20.21,0,111.4,13.08,28.07,313.9
"2009-08-24 00:17:00",1178243,8.5,352.2,2.028,0.931,23.57,110.9037,27.22,28.3,20.52,0,111.4,13.08,28.06,314.2
"2009-08-24 00:17:30",1178244,5.933,356.6,3.047,1.071,23.58,110.8852,27.17,28.26,21.75,0,111.4,13.08,28.02,318.6
"2009-08-24 00:18:00",1178245,7.654,352.7,2.621,0.989,23.54,110.8746,27.14,28.24,20.93,0,111.4,13.08,27.99,314.7
"2009-08-24 00:18:30",1178246,7.895,351.9,2.401,0.705,23.57,110.8717,27.14,28.22,20.98,0,111.4,13.08,27.98,313.9
"2009-08-24 00:19:00",1178247,7.164,354.1,2.196,0.833,23.58,110.8661,27.12,28.2,21.01,0,111.4,13.09,27.97,316.1
"2009-08-24 00:19:30",1178248,6.926,354.7,1.571,0.493,23.57,110.8496,27.08,28.17,21.21,0,111.4,13.09,27.92,316.7
"2009-08-24 00:20:00",1178249,7.617,353.2,2.21,0.602,23.58,110.8403,27.05,28.17,21.1,0,111.4,13.09,27.90,315.2
"2009-08-24 00:20:30",1178250,7.118,354.8,2.224,0.776,23.54,110.8381,27.05,28.13,20.98,0,111.4,13.09,27.89,316.8
"2009-08-24 00:21:00",1178251,6.941,354.3,1.891,0.543,23.58,110.8359,27.04,28.11,21.09,0,111.4,13.08,27.89,316.3
"2009-08-24 00:21:30",1178252,7.28,353.3,1.602,0.528,23.55,110.8196,27,28.09,21.21,0,111.3,13.08,27.85,315.3
"2009-08-24 00:22:00",1178253,7.716,351.8,1.655,0.534,23.58,110.8098,26.98,28.07,21.53,0,111.3,13.08,27.82,313.8
"2009-08-24 00:22:30",1178254,8.05,352.6,1.807,0.667,23.54,110.8051,26.96,28.04,21.18,0,111.3,13.08,27.81,314.6
"2009-08-24 00:23:00",1178255,8.45,350.2,2.363,0.786,23.56,110.8064,26.97,28.04,21,0,111.3,13.08,27.81,312.2
"2009-08-24 00:23:30",1178256,8.69,347.3,1.277,0.26,23.58,110.8122,26.98,28.02,21.1,0,111.3,13.08,27.83,309.3
"2009-08-24 00:24:00",1178257,9.36,346.8,1.364,0.21,23.54,110.8067,26.97,28.02,20.99,0,111.3,13.08,27.81,308.8
"2009-08-24 00:24:30",1178258,8.76,349.1,1.134,0.387,23.52,110.8028,26.96,28,21.21,0,111.3,13.08,27.80,311.1
"2009-08-24 00:25:00",1178259,9.27,346.9,1.152,0.239,23.46,110.7981,26.95,27.98,21.28,0,111.3,13.08,27.79,308.9
"2009-08-24 00:25:30",1178260,9.84,343.6,3.889,0.655,23.39,110.7984,26.95,27.96,21.42,0,111.3,13.08,27.79,305.6
"2009-08-24 00:26:00",1178261,9.95,341.7,1.22,0.411,23.3,110.7987,26.95,27.96,21.46,0,111.3,13.09,27.79,303.7
"2009-08-24 00:26:30",1178262,9.74,341.1,1.59,0.287,23.27,110.7985,26.95,27.93,21.41,0,111.3,13.09,27.79,303.1
"2009-08-24 00:27:00",1178263,9.55,342.5,2.254,0.157,23.32,110.7895,26.92,27.93,21.45,0,111.3,13.09,27.77,304.5
"2009-08-24 00:27:30",1178264,9.21,342.9,1.265,0.186,23.34,110.777,26.89,27.91,21.51,0,111.3,13.09,27.74,304.9
"2009-08-24 00:28:00",1178265,9.51,341.7,2.796,0.426,23.26,110.7738,26.88,27.89,21.65,0,111.3,13.09,27.73,303.7
"2009-08-24 00:28:30",1178266,9.26,341.1,0.959,0.163,23.23,110.7706,26.88,27.9,21.72,0,111.3,13.09,27.72,303.1
"2009-08-24 00:29:00",1178267,9.41,339.8,1.72,0.433,23.22,110.7732,26.88,27.89,21.85,0,111.3,13.09,27.73,301.8
"2009-08-24 00:29:30",1178268,10.02,339.6,1.96,0.302,23.28,110.7741,26.88,27.89,21.55,0,111.3,13.09,27.73,301.6
"2009-08-24 00:30:00",1178269,9.74,342.4,1.812,0.261,23.25,110.771,26.88,27.87,21.63,0,111.3,13.1,27.72,304.4
"2009-08-24 00:30:30",1178270,9.91,340,1.887,0.274,23.25,110.7587,26.84,27.86,21.56,0,111.3,13.09,27.69,302.0
"2009-08-24 00:31:00",1178271,10.09,341.4,1.296,0.2,23.31,110.7492,26.82,27.83,21.54,0,111.3,13.1,27.67,303.4
"2009-08-24 00:31:30",1178272,10.23,339,1.057,0.152,23.29,110.7416,26.8,27.83,21.35,0,111.3,13.1,27.65,301.0
"2009-08-24 00:32:00",1178273,9.9,339.1,1.089,0.256,23.28,110.7405,26.8,27.81,21.29,0,111.3,13.1,27.64,301.1
"2009-08-24 00:32:30",1178274,9.62,342,1.032,0.172,23.25,110.7368,26.79,27.8,21.25,0,111.3,13.1,27.63,304.0
"2009-08-24 00:33:00",1178275,9.49,344.1,2.202,0.546,23.34,110.7188,26.74,27.78,21.19,0,111.3,13.1,27.59,306.1
"2009-08-24 00:33:30",1178276,9.95,343.2,2.847,0.336,23.37,110.7135,26.73,27.78,21.2,0,111.3,13.1,27.57,305.2
"2009-08-24 00:34:00",1178277,9.54,343.4,1.975,0.323,23.38,110.7074,26.71,27.74,21.2,0,111.3,13.1,27.56,305.4
"2009-08-24 00:34:30",1178278,9.18,345.4,1.59,0.235,23.39,110.7071,26.71,27.75,21.14,0,111.3,13.1,27.56,307.4
"2009-08-24 00:35:00",1178279,9.12,343.3,0.846,0.363,23.27,110.7059,26.71,27.73,21.27,0,111.3,13.1,27.55,305.3
"2009-08-24 00:35:30",1178280,8.56,344.4,1.432,0.281,23.23,110.6922,26.67,27.73,21.39,0,111.3,13.1,27.52,306.4
"2009-08-24 00:36:00",1178281,8.22,346.5,1.693,0.192,23.2,110.6836,26.65,27.7,21.65,0,111.3,13.1,27.50,308.5
"2009-08-24 00:36:30",1178282,9.52,344.9,2.396,0.484,23.29,110.6811,26.65,27.69,21.8,0,111.3,13.1,27.49,306.9
"2009-08-24 00:37:00",1178283,9.29,344.4,2.089,0.568,23.25,110.6824,26.65,27.7,21.7,0,111.2,13.1,27.49,306.4
"2009-08-24 00:37:30",1178284,9.11,346.9,1.413,0.382,23.28,110.6862,26.66,27.68,21.67,0,111.3,13.1,27.50,308.9
"2009-08-24 00:38:00",1178285,9.3,345.9,1.188,0.109,23.29,110.6862,26.66,27.66,21.62,0,111.3,13.1,27.50,307.9
"2009-08-24 00:38:30",1178286,9.61,345.5,0.828,0.165,23.46,110.6699,26.62,27.65,21.54,0,111.3,13.1,27.46,307.5
"2009-08-24 00:39:00",1178287,9.47,345.2,0.962,0.141,23.46,110.6702,26.62,27.64,21.46,0,111.3,13.1,27.46,307.2
"2009-08-24 00:39:30",1178288,9.08,344.2,0.469,0.16,23.64,110.6654,26.6,27.61,21.46,0,111.3,13.09,27.45,306.2
"2009-08-24 00:40:00",1178289,8.77,344.5,0.938,0.152,23.84,110.6674,26.61,27.61,20.95,0,111.2,13.09,27.45,306.5
"2009-08-24 00:40:30",1178290,8.86,346.3,0.671,0.077,23.85,110.6677,26.61,27.6,20.76,0,111.2,13.1,27.46,308.3
"2009-08-24 00:41:00",1178291,8.92,346.1,0.636,0.119,23.72,110.6674,26.61,27.6,21,0,111.2,13.1,27.45,308.1
"2009-08-24 00:41:30",1178292,8.88,346.6,0.418,0.103,23.88,110.6671,26.61,27.6,20.89,0,111.2,13.1,27.45,308.6
"2009-08-24 00:42:00",1178293,8.67,346.3,1.156,0.132,23.9,110.6702,26.62,27.57,20.47,0,111.2,13.1,27.46,308.3
"2009-08-24 00:42:30",1178294,9,345.6,1.334,0.137,23.85,110.6681,26.61,27.58,20.58,0,111.2,13.1,27.46,307.6
"2009-08-24 00:43:00",1178295,8.59,345.9,0.784,0.088,23.86,110.6727,26.62,27.57,20.43,0,111.2,13.1,27.47,307.9
"2009-08-24 00:43:30",1178296,8.43,344.6,0.863,0.169,23.7,110.6742,26.63,27.57,20.7,0,111.2,13.1,27.47,306.6
"2009-08-24 00:44:00",1178297,8.46,346,1.525,0.262,23.66,110.6752,26.63,27.57,20.76,0,111.2,13.1,27.47,308.0
"2009-08-24 00:44:30",1178298,8.52,344.6,1.621,0.228,23.58,110.6767,26.63,27.58,20.92,0,111.2,13.1,27.48,306.6
"2009-08-24 00:45:00",1178299,8.18,343,1.499,0.179,23.72,110.677,26.63,27.59,20.63,0,111.2,13.1,27.48,305.0
"2009-08-24 00:45:30",1178300,8.03,344.3,1.568,0.275,23.55,110.6792,26.64,27.6,20.9,0,111.2,13.1,27.48,306.3
"2009-08-24 00:46:00",1178301,8.06,342.3,0.948,0.241,23.76,110.6834,26.65,27.62,20.7,0,111.2,13.1,27.50,304.3
"2009-08-24 00:46:30",1178302,8.25,345.7,1.445,0.185,23.88,110.6865,26.66,27.63,20.21,0,111.2,13.1,27.50,307.7
"2009-08-24 00:47:00",1178303,8.28,345.3,1.082,0.213,23.61,110.6933,26.68,27.64,20.51,0,111.2,13.1,27.52,307.3
"2009-08-24 00:47:30",1178304,8.37,343.6,0.851,0.122,23.58,110.7053,26.71,27.64,20.76,0,111.2,13.1,27.55,305.6
"2009-08-24 00:48:00",1178305,8.61,344.4,1.206,0.104,23.38,110.7107,26.72,27.66,21.05,0,111.2,13.11,27.57,306.4
"2009-08-24 00:48:30",1178306,8.31,341.9,1.008,0.114,23.57,110.7107,26.72,27.65,21.05,0,111.2,13.11,27.57,303.9
"2009-08-24 00:49:00",1178307,8.17,339.4,1.007,0.112,23.8,110.7107,26.72,27.67,20.53,0,111.2,13.11,27.57,301.4
"2009-08-24 00:49:30",1178308,8.33,340.2,1.192,0.256,23.7,110.7107,26.72,27.69,20.26,0,111.2,13.11,27.57,302.2
"2009-08-24 00:50:00",1178309,8.6,340.1,1.391,0.2,23.69,110.7121,26.72,27.69,20.41,0,111.2,13.11,27.57,302.1
"2009-08-24 00:50:30",1178310,8.09,337.6,0.76,0.138,23.54,110.718,26.74,27.7,20.46,0,111.2,13.11,27.59,299.6
"2009-08-24 00:51:00",1178311,8.17,339.6,0.983,0.187,23.47,110.7213,26.75,27.72,20.7,0,111.2,13.11,27.59,301.6
"2009-08-24 00:51:30",1178312,8.79,341.6,1.383,0.135,23.48,110.7326,26.78,27.73,20.96,0,111.2,13.11,27.62,303.6
"2009-08-24 00:52:00",1178313,8.07,339.9,1.183,0.26,23.72,110.741,26.8,27.74,20.43,0,111.2,13.11,27.64,301.9
"2009-08-24 00:52:30",1178314,8.33,342,1.172,0.221,23.69,110.7444,26.81,27.75,20.43,0,111.2,13.11,27.65,304.0
"2009-08-24 00:53:00",1178315,8.15,340.9,1.083,0.242,23.74,110.7444,26.81,27.76,20.15,0,111.2,13.11,27.65,302.9
"2009-08-24 00:53:30",1178316,8.39,341.4,2.595,0.114,23.53,110.7444,26.81,27.76,20.44,0,111.2,13.11,27.65,303.4
"2009-08-24 00:54:00",1178317,8.29,345.6,0.99,0.139,23.56,110.7444,26.81,27.78,20.57,0,111.2,13.11,27.65,307.6
"2009-08-24 00:54:30",1178318,8.24,344,1.801,0.142,23.44,110.7481,26.82,27.79,20.49,0,111.2,13.11,27.66,306.0
"2009-08-24 00:55:00",1178319,7.805,342.1,0.739,0.195,23.43,110.7531,26.83,27.81,20.71,0,111.2,13.11,27.68,304.1
"2009-08-24 00:55:30",1178320,7.677,343.8,0.697,0.183,23.46,110.7615,26.85,27.82,20.55,0,111.2,13.11,27.70,305.8
"2009-08-24 00:56:00",1178321,8.2,344.4,0.678,0.09,23.41,110.7748,26.89,27.83,20.54,0,111.2,13.11,27.73,306.4
"2009-08-24 00:56:30",1178322,8.25,344.8,0.655,0.097,23.41,110.7802,26.9,27.86,20.5,0,111.2,13.11,27.75,306.8
"2009-08-24 00:57:00",1178323,8.46,344.1,0.8,0.085,23.53,110.7808,26.9,27.87,20.37,0,111.2,13.11,27.75,306.1
"2009-08-24 00:57:30",1178324,8.34,342.7,0.439,0.054,23.4,110.7832,26.91,27.88,20.38,0,111.2,13.11,27.75,304.7
"2009-08-24 00:58:00",1178325,8.5,343.4,1.246,0.148,23.33,110.7926,26.93,27.91,20.49,0,111.2,13.11,27.78,305.4
"2009-08-24 00:58:30",1178326,8.84,342.8,0.689,0.108,23.42,110.804,26.96,27.91,20.56,0,111.2,13.11,27.81,304.8
"2009-08-24 00:59:00",1178327,8.83,343.6,1.162,0.161,23.53,110.813,26.98,27.92,20.13,0,111.2,13.11,27.83,305.6
"2009-08-24 00:59:30",1178328,8.87,345.3,1.33,0.169,23.54,110.8139,26.99,27.94,20.07,0,111.2,13.1,27.83,307.3
"2009-08-24 01:00:00",1178329,8.37,349.4,1.894,0.578,23.6,110.8194,27,27.96,19.99,0,111.2,13.11,27.85,311.4
"2009-08-24 01:00:30",1178330,8.46,347,1.192,0.285,23.66,110.8308,27.03,27.99,19.8,0,111.2,13.11,27.88,309.0
"2009-08-24 01:01:00",1178331,8.32,347.3,0.901,0.225,23.72,110.8476,27.07,27.98,19.34,0,111.2,13.11,27.92,309.3
"2009-08-24 01:01:30",1178332,8.12,347.4,1.742,0.372,23.64,110.8482,27.07,28.03,19.75,0,111.2,13.11,27.92,309.4
"2009-08-24 01:02:00",1178333,8.11,348.7,1.527,0.382,23.64,110.8537,27.09,28.04,19.72,0,111.2,13.11,27.94,310.7
"2009-08-24 01:02:30",1178334,8.48,347.5,1.039,0.335,23.59,110.876,27.15,28.06,19.85,0,111.2,13.11,27.99,309.5
"2009-08-24 01:03:00",1178335,8.12,349.4,1.59,0.394,23.59,110.8798,27.16,28.08,19.87,0,111.2,13.11,28.00,311.4
"2009-08-24 01:03:30",1178336,7.205,352.3,1.885,0.602,23.59,110.8838,27.17,28.11,19.59,0,111.2,13.11,28.01,314.3
"2009-08-24 01:04:00",1178337,7.214,352.5,1.86,0.39,23.58,110.8968,27.2,28.13,19.38,0,111.2,13.11,28.05,314.5
"2009-08-24 01:04:30",1178338,7.331,350.2,2.597,0.537,23.57,110.9141,27.24,28.15,19.61,0,111.2,13.11,28.09,312.2
"2009-08-24 01:05:00",1178339,7.737,348.1,2.131,0.331,23.57,110.9153,27.25,28.18,19.53,0,111.2,13.11,28.09,310.1
"2009-08-24 01:05:30",1178340,7.783,349.9,2.133,0.602,23.62,110.916,27.25,28.19,19.45,0,111.2,13.11,28.10,311.9
"2009-08-24 01:06:00",1178341,7.951,349.1,1.767,0.566,23.65,110.923,27.27,28.2,19.46,0,111.2,13.11,28.11,311.1
"2009-08-24 01:06:30",1178342,7.582,350.3,2.011,0.523,23.66,110.9367,27.3,28.22,19.21,0,111.2,13.11,28.15,312.3
"2009-08-24 01:07:00",1178343,7.241,350.6,1.88,0.455,23.62,110.9469,27.33,28.25,19.47,0,111.2,13.11,28.18,312.6
"2009-08-24 01:07:30",1178344,5.912,355,2.2,0.752,23.59,110.9483,27.33,28.27,19.19,0,111.2,13.11,28.18,317.0
"2009-08-24 01:08:00",1178345,6.403,354.3,3.208,1.214,23.57,110.9471,27.33,28.28,19.34,0,111.2,13.11,28.18,316.3
"2009-08-24 01:08:30",1178346,7.634,351.1,2.16,0.681,23.63,110.9516,27.34,28.29,19.4,0,111.2,13.11,28.19,313.1
"2009-08-24 01:09:00",1178347,5.48,357.3,1.816,0.4,23.6,110.9567,27.35,28.31,18.9,0,111.2,13.11,28.20,319.3
"2009-08-24 01:09:30",1178348,5.229,359.1,3.091,0.391,23.61,110.964,27.37,28.32,19.02,0,111.2,13.11,28.22,321.1
"2009-08-24 01:10:00",1178349,5.153,356.2,2.443,0.571,23.63,110.9798,27.41,28.32,19.03,0,111.2,13.11,28.26,318.2
"2009-08-24 01:10:30",1178350,4.586,359.6,3.033,0.656,23.57,110.9814,27.42,28.34,19.42,0,111.2,13.11,28.26,321.6
"2009-08-24 01:11:00",1178351,4.528,3.598,2.679,0.462,23.58,110.9817,27.42,28.35,19.12,0,111.2,13.11,28.27,325.6
"2009-08-24 01:11:30",1178352,5.382,358.8,4.063,0.764,23.58,110.9811,27.42,28.36,19.19,0,111.2,13.11,28.26,320.8
"2009-08-24 01:12:00",1178353,4.531,1.932,4.029,0.274,23.58,110.9829,27.42,28.37,19.22,0,111.2,13.11,28.27,323.9
"2009-08-24 01:12:30",1178354,4.823,358.9,3.506,0.635,23.6,110.9814,27.42,28.39,19.4,0,111.2,13.11,28.26,320.9
"2009-08-24 01:13:00",1178355,4.511,0.749,3.071,0.342,23.65,110.9829,27.42,28.38,19.24,0,111.2,13.11,28.27,322.7
"2009-08-24 01:13:30",1178356,4.981,357.8,3.116,0.698,23.68,110.9829,27.42,28.4,19.32,0,111.2,13.11,28.27,319.8
"2009-08-24 01:14:00",1178357,5.707,355.6,3.09,0.628,23.72,110.9856,27.43,28.41,19.58,0,111.2,13.1,28.28,317.6
"2009-08-24 01:14:30",1178358,4.683,0.012,1.911,0.474,23.71,110.9872,27.43,28.41,19.36,0,111.2,13.1,28.28,322.0
"2009-08-24 01:15:00",1178359,4.427,358.4,2.818,0.438,23.68,110.989,27.44,28.41,19.4,0,111.2,13.1,28.28,320.4
"2009-08-24 01:15:30",1178360,4.018,0.91,3.047,0.701,23.66,110.9898,27.44,28.41,19.34,0,111.2,13.1,28.29,322.9
"2009-08-24 01:16:00",1178361,3.897,5.637,3.253,0.332,23.64,110.9895,27.44,28.42,19.25,0,111.2,13.11,28.29,327.6
"2009-08-24 01:16:30",1178362,3.466,4.819,4.222,0.353,23.58,110.9901,27.44,28.43,19.41,0,111.2,13.1,28.29,326.8
"2009-08-24 01:17:00",1178363,3.905,0.779,2.331,0.353,23.63,110.9904,27.44,28.43,19.51,0,111.2,13.1,28.29,322.8
"2009-08-24 01:17:30",1178364,4.014,7.022,5.952,0.606,23.66,110.9904,27.44,28.44,19.47,0,111.2,13.11,28.29,329.0
"2009-08-24 01:18:00",1178365,4.202,14.98,2.934,0.462,23.62,110.9907,27.44,28.42,19.35,0,111.2,13.11,28.29,337.0
"2009-08-24 01:18:30",1178366,4.094,10.71,3.315,0.354,23.63,110.9917,27.44,28.43,19.41,0,111.2,13.11,28.29,332.7
"2009-08-24 01:19:00",1178367,4.124,9,2.522,0.397,23.65,110.991,27.44,28.44,19.47,0,111.2,13.11,28.29,331.0
"2009-08-24 01:19:30",1178368,4.222,11.96,3.004,0.421,23.69,110.9904,27.44,28.45,19.45,0,111.2,13.11,28.29,334.0
"2009-08-24 01:20:00",1178369,4.55,13.39,3.445,0.582,23.76,110.9911,27.44,28.44,19.4,0,111.2,13.11,28.29,335.4
"2009-08-24 01:20:30",1178370,5.325,17.69,1.532,0.256,23.85,110.9878,27.43,28.44,19.24,0,111.2,13.11,28.28,339.7
"2009-08-24 01:21:00",1178371,5.225,17.64,1.697,0.277,23.88,110.9873,27.43,28.44,19.3,0,111.2,13.11,28.28,339.6
"2009-08-24 01:21:30",1178372,4.832,16.84,2.574,0.475,23.84,110.9873,27.43,28.45,19.34,0,111.2,13.11,28.28,338.8
"2009-08-24 01:22:00",1178373,5.19,18.78,1.151,0.296,23.92,110.9839,27.42,28.44,19.4,0,111.2,13.11,28.27,340.8
"2009-08-24 01:22:30",1178374,5.268,18.74,0.759,0.252,23.94,110.9882,27.43,28.43,19.41,0,111.2,13.11,28.28,340.7
"2009-08-24 01:23:00",1178375,4.969,18.09,1.952,0.464,23.9,110.9895,27.44,28.45,19.47,0,111.2,13.11,28.29,340.1
"2009-08-24 01:23:30",1178376,4.952,17,1.839,0.466,23.92,110.9907,27.44,28.43,19.39,0,111.2,13.11,28.29,339.0
"2009-08-24 01:24:00",1178377,5.196,19.09,1.032,0.19,23.98,110.9901,27.44,28.42,19.26,0,111.2,13.11,28.29,341.1
"2009-08-24 01:24:30",1178378,5.227,19.2,1.058,0.243,23.93,110.9774,27.41,28.42,19.33,0,111.2,13.11,28.25,341.2
"2009-08-24 01:25:00",1178379,4.658,17.33,1.938,0.492,23.88,110.9664,27.38,28.41,19.27,0,111.2,13.11,28.23,339.3
"2009-08-24 01:25:30",1178380,4.785,17.61,1.419,0.533,23.9,110.9644,27.37,28.4,19.35,0,111.2,13.11,28.22,339.6
"2009-08-24 01:26:00",1178381,4.522,17.46,1.272,0.383,23.9,110.9611,27.36,28.4,19.29,0,111.2,13.11,28.21,339.5
"2009-08-24 01:26:30",1178382,4.668,17.29,1.683,0.496,23.92,110.9661,27.38,28.38,19.28,0,111.2,13.12,28.23,339.3
"2009-08-24 01:27:00",1178383,5.121,18.69,1.263,0.342,23.97,110.966,27.38,28.38,19.16,0,111.2,13.12,28.22,340.7
"2009-08-24 01:27:30",1178384,5.108,18.88,0.978,0.302,23.97,110.9594,27.36,28.38,19.01,0,111.2,13.12,28.21,340.9
"2009-08-24 01:28:00",1178385,4.796,18.45,1.197,0.34,23.94,110.946,27.33,28.35,19.2,0,111.2,13.12,28.17,340.5
"2009-08-24 01:28:30",1178386,5.45,18.99,1.368,0.305,23.96,110.9416,27.31,28.34,19.77,0,111.2,13.12,28.16,341.0
"2009-08-24 01:29:00",1178387,5.46,19.94,1.653,0.487,24.01,110.9392,27.31,28.32,20.13,0,111.2,13.12,28.16,341.9
"2009-08-24 01:29:30",1178388,5.399,22.05,1.945,0.346,23.97,110.9398,27.31,28.33,20.11,0,111.2,13.11,28.16,344.0
"2009-08-24 01:30:00",1178389,4.883,21.21,2.883,0.421,23.95,110.9391,27.31,28.32,20.03,0,111.2,13.11,28.16,343.2
"2009-08-24 01:30:30",1178390,4.846,19.77,1.277,0.288,23.95,110.927,27.28,28.28,20.14,0,111.2,13.11,28.12,341.8
"2009-08-24 01:31:00",1178391,4.623,19.6,2.006,0.362,23.97,110.9149,27.25,28.26,20.2,0,111.2,13.11,28.09,341.6
"2009-08-24 01:31:30",1178392,3.988,17.52,1.621,0.432,23.93,110.9082,27.23,28.27,20.07,0,111.2,13.11,28.08,339.5
"2009-08-24 01:32:00",1178393,4.275,18.2,1.813,0.424,23.97,110.9071,27.23,28.26,20.35,0,111.2,13.11,28.07,340.2
"2009-08-24 01:32:30",1178394,4.056,17.53,2.048,0.485,23.98,110.9071,27.23,28.23,20.16,0,111.2,13.11,28.07,339.5
"2009-08-24 01:33:00",1178395,4.258,18.42,1.637,0.391,24,110.9021,27.21,28.23,20.35,0,111.2,13.11,28.06,340.4
"2009-08-24 01:33:30",1178396,3.908,17.08,2.014,0.401,23.93,110.8929,27.19,28.2,20.23,0,111.2,13.11,28.04,339.1
"2009-08-24 01:34:00",1178397,4.044,17.97,1.538,0.287,23.94,110.8794,27.15,28.19,20.07,0,111.2,13.11,28.00,340.0
"2009-08-24 01:34:30",1178398,3.639,15.61,1.739,0.306,23.9,110.8765,27.15,28.18,20.11,0,111.2,13.11,27.99,337.6
"2009-08-24 01:35:00",1178399,3.377,15.1,2.41,0.413,23.9,110.8772,27.15,28.15,20.12,0,111.2,13.12,28.00,337.1
"2009-08-24 01:35:30",1178400,3.111,10.21,4.507,0.342,23.74,110.8704,27.13,28.15,20.29,0,111.2,13.12,27.98,332.2
"2009-08-24 01:36:00",1178401,3.627,15.2,1.959,0.419,23.6,110.8537,27.09,28.13,20.66,0,111.2,13.12,27.94,337.2
"2009-08-24 01:36:30",1178402,4.066,15.9,1.68,0.331,23.56,110.8456,27.07,28.12,20.98,0,111.2,13.12,27.91,337.9
"2009-08-24 01:37:00",1178403,4.229,16.44,1.817,0.4,23.65,110.8466,27.07,28.11,21,0,111.2,13.12,27.92,338.4
"2009-08-24 01:37:30",1178404,4.499,16.99,1.312,0.165,23.9,110.845,27.07,28.09,20.67,0,111.2,13.12,27.91,339.0
"2009-08-24 01:38:00",1178405,4.942,17.28,1.535,0.211,23.79,110.8302,27.03,28.08,20.6,0,111.2,13.12,27.87,339.3
"2009-08-24 01:38:30",1178406,4.697,17.27,1.333,0.243,23.95,110.8178,27,28.05,20.47,0,111.2,13.12,27.84,339.3
"2009-08-24 01:39:00",1178407,4.551,16.78,1.084,0.26,24.01,110.8154,26.99,28.03,20.19,0,111.2,13.12,27.84,338.8
"2009-08-24 01:39:30",1178408,5.075,18.19,0.925,0.331,24.05,110.8111,26.98,28,19.96,0,111.2,13.12,27.83,340.2
"2009-08-24 01:40:00",1178409,4.629,17.64,1.56,0.393,23.99,110.7912,26.93,27.98,19.98,0,111.2,13.12,27.77,339.6
"2009-08-24 01:40:30",1178410,4.026,15.93,1.866,0.365,23.97,110.7825,26.91,28,20.09,0,111.2,13.12,27.75,337.9
"2009-08-24 01:41:00",1178411,4.185,15.93,2.264,0.755,23.69,110.7817,26.9,27.95,20.21,0,111.2,13.12,27.75,337.9
"2009-08-24 01:41:30",1178412,5.415,18.48,1.064,0.265,23.35,110.7817,26.9,27.94,21.15,0,111.2,13.12,27.75,340.5
"2009-08-24 01:42:00",1178413,6.072,19.23,0.809,0.347,23.27,110.7696,26.87,27.9,21.45,0,111.2,13.12,27.72,341.2
"2009-08-24 01:42:30",1178414,6.326,19.11,1.107,0.317,23.23,110.7547,26.83,27.91,21.61,0,111.2,13.12,27.68,341.1
"2009-08-24 01:43:00",1178415,6.832,21.81,1.346,0.32,23.2,110.7485,26.82,27.88,21.63,0,111.2,13.12,27.66,343.8
"2009-08-24 01:43:30",1178416,6.924,22.21,0.985,0.272,23.22,110.748,26.82,27.86,21.64,0,111.2,13.12,27.66,344.2
"2009-08-24 01:44:00",1178417,6.73,22.81,1.379,0.285,23.24,110.7359,26.79,27.84,21.66,0,111.2,13.12,27.63,344.8
"2009-08-24 01:44:30",1178418,6.513,23.14,1.552,0.255,23.27,110.7174,26.74,27.83,21.69,0,111.2,13.12,27.58,345.1
"2009-08-24 01:45:00",1178419,6.548,22.79,0.805,0.255,23.27,110.7132,26.73,27.81,21.72,0,111.2,13.13,27.57,344.8
"2009-08-24 01:45:30",1178420,6.169,24.58,1.798,0.17,23.23,110.698,26.69,27.77,21.76,0,111.2,13.13,27.53,346.6
"2009-08-24 01:46:00",1178421,6.054,25.93,0.891,0.191,23.2,110.6823,26.65,27.75,21.76,0,111.2,13.13,27.49,347.9
"2009-08-24 01:46:30",1178422,6.308,25.5,1.108,0.229,23.21,110.6652,26.6,27.72,21.82,0,111.2,13.13,27.45,347.5
"2009-08-24 01:47:00",1178423,6.526,24.97,0.922,0.272,23.23,110.6475,26.56,27.69,21.86,0,111.2,13.13,27.40,347.0